Regional Weather Roundup
Issued by NWS Newport/Morehead, NC

Current Version | Previous Version | Text Only | Print | Product List | Glossary On
Versions: 1 2 3 4 5 6 7 8 9 10 11 12 13 14 15 16 17 18 19 20 21 22 23 24 25 26 27 28 29 30 31 32 33 34 35 36 37 38 39 40 41 42 43 44 45 46 47 48 49 50
000 ASUS42 KMHX 010513 RWRMHX WEATHER ROUNDUP FOR EASTERN NORTH CAROLINA NATIONAL WEATHER SERVICE NEWPORT/MOREHEAD CITY NC 100 AM EDT SAT OCT 01 2016 NOTE: "FAIR" INDICATES FEW OR NO CLOUDS BELOW 12,000 FEET WITH NO SIGNIFICANT WEATHER AND/OR OBSTRUCTIONS TO VISIBILITY NCZ015>017-031-032-045>047-102-103-010600- NORTH COAST CITY SKY/WX TMP DP RH WIND PRES REMARKS EDENTON PTCLDY 75 75 100 SE5 30.06S ELIZABETH CITY PTCLDY 74 72 93 SE5 30.06S KITTY HAWK MOCLDY 76 76 100 S5 30.06S MANTEO CLOUDY 76 74 93 S10 30.07S $$ NCZ045>047-081-094-103-104-010600- CENTRAL COAST CITY SKY/WX TMP DP RH WIND PRES REMARKS FRISCO CLOUDY 78 74 87 S14 30.07S $$ NCZ095-097-098-100-101-010600- SOUTHERN COAST CITY SKY/WX TMP DP RH WIND PRES REMARKS BEAUFORT LGT RAIN 79 76 90 SE7 30.04F CEDAR ISLAND NOT AVBL JACKSONVILLE CLOUDY 76 74 93 CALM 30.02F PINEY ISLAND PTCLDY N/A N/A N/A SE9 30.04F WILMINGTON CLOUDY 75 73 93 SW5 30.02F $$ NCZ011>013-027>030-043-044-078>080-089-090>093-098-010600- COASTAL PLAIN CITY SKY/WX TMP DP RH WIND PRES REMARKS AHOSKIE PTCLDY 70 69 99 CALM 30.05S CLINTON PTCLDY 72 72 100 CALM 30.03S FOG ELIZABETHTOWN PTCLDY 70 70 100 CALM 30.03R GOLDSBORO PTCLDY 72 72 100 SE2 30.01S GREENVILLE CLOUDY 72 72 100 SE5 30.06R HAVELOCK MOCLDY 75 73 93 SE6 30.04F KENANSVILLE FOG 70 70 100 CALM 30.04R VSB 3/4 KINSTON MOCLDY 73 72 97 SE3 30.04S NEW BERN PTCLDY 74 72 93 CALM 30.05S RICHLANDS FOG 72 72 100 CALM 30.03F VSB 3/4 ROCKY MOUNT CLOUDY 71 71 100 CALM 30.04S WASHINGTON PTCLDY 74 72 94 S3 30.05S WHITEVILLE NOT AVBL $$ AMZ130-135-150-152-154-156-158-170-250-252-270-ANZ085-086-088-633-658-670-010600- MARINE OBSERVATIONS STATION/POSITION TIME TEMP WIND PRES WAVE SWELL AIR SEA DIR/SP/G HT/PER HT/PER (UTC) (F) (DEG/KT/KT) (MB) (FT/S) (FT/S) CHESAPEAKE LIGHT NOT AVBL 64 E VA BEACH 0450 75 75 180/ 6/ 8 1018.5 7/10 7/10 DUCK 0448 77 77 150/ 11/ 13 1017.4 2 E DUCK 0441 76 N/A 4/10 2/11 OREGON INLET 0448 76 79 150/ 7/ 12 1018.0 13E OREGON INLT NOT AVBL HATTERAS CG 0448 78 79 150/ 12/ 15 1017.8 DIAMOND BUOY 0450 80 84 160/ 17/ 19 1017.8 5/11 5/11 CAPE LOOKOUT 0500 79 150/ 18/ 21 1016.8 BEAUFORT LAB 0448 79 77 150/ 9/ 12 1016.6 30 SE NEW RVR IN 0408 82 82 200/ 10/ 16 1017.2 30 SE NEW RVR IN 0455 82 N/A 5/12 2/12 27 SE WRIGHTSVLE 0408 81 81 180/ 10/ 12 1017.0 5 SE WRIGHTSVLE 0408 80 81 200/ 10/ 14 1018.0 225 S CAPE HAT 0450 82 83 150/ 14/ 16 1018.8 5/11 5/11 41 SE CHARLESTON 0450 80 82 230/ 10/ 12 1016.0 3/ 9 2/ 9 $$

USA.gov is the U.S. government's official web portal to all federal, state and local government web resources and services.